Morganton, NC

1:23 AM EDT on May 23, 2017 (GMT -0400)
Morganton-Lenoir

Weather History for KMRN - August, 2014

Change the Weather History Date:

Monday, August 18, 2014

  Actual Average (KHKY) Record (KHKY)
Temperature  
Mean Temperature 78 °F -  
Max Temperature 87 °F 87 °F 102 °F (1988)
Min Temperature 68 °F 66 °F 55 °F (1976)
Cooling Degree Days 12    
Growing Degree Days 28 (Base 50)    
Moisture  
Dew Point 69 °F    
Average Humidity 81    
Maximum Humidity 100    
Minimum Humidity 48    
Precipitation  
Precipitation 0.02 in - - ()
Sea Level Pressure  
Sea Level Pressure 29.95 in    
Wind  
Wind Speed 1 mph (West)    
Max Wind Speed 10 mph    
Max Gust Speed 18 mph    
Visibility 7 miles    
Events Rain    
Averages and records for this station are not official NWS values.
T = Trace of Precipitation, MM = Missing Value Source: NWS Daily Summary

Daily Weather History Graph

Daily Weather History Graph

Search for Another Location

Airport or City:

Trip Planner

Search our weather history database for the weather conditions in past years. The results will help you decide how hot, cold, wet, or windy it might be!

Date:

Astronomy

Aug. 18, 2014 Rise Set
Actual Time 6:47 AM EDT 8:12 PM EDT
Civil Twilight 6:20 AM EDT 8:39 PM EDT
Nautical Twilight 5:48 AM EDT 9:11 PM EDT
Astronomical Twilight 5:14 AM EDT 9:45 PM EDT
Moon 12:56 AM EDT (8/18) 3:11 PM EDT (8/18)
Length of Visible Light 14h 18m
Length of Day
13h 24m
Last Quarter, 38% of the Moon is Illuminated
Aug 18
Last Quarter
Aug 25
New
Sep 2
First Quarter
Sep 8
Full
Sep 15
Last Quarter

Hourly Weather History & Observations

Time (EDT) Temp. Heat Index Dew Point Humidity Pressure Visibility Wind Dir Wind Speed Gust Speed Precip Events Conditions
12:15 AM 70.5 °F - 70.3 °F 99% 30.05 in 5.0 mi Calm Calm - N/A   Clear
12:35 AM 69.8 °F - 69.4 °F 99% 30.04 in 4.0 mi Calm Calm - N/A   Clear
12:55 AM 69.8 °F - 69.6 °F 99% 30.04 in 4.0 mi Calm Calm - N/A   Mostly Cloudy
1:15 AM 69.3 °F - 69.1 °F 99% 30.03 in 5.0 mi Calm Calm - N/A   Mostly Cloudy
1:35 AM 69.8 °F - 69.6 °F 99% 30.03 in 4.0 mi Calm Calm - N/A   Overcast
1:55 AM 69.8 °F - 69.6 °F 99% 30.02 in 5.0 mi Calm Calm - N/A   Overcast
2:15 AM 69.8 °F - 69.8 °F 100% 30.02 in 5.0 mi Calm Calm - N/A   Overcast
2:35 AM 70.0 °F - 70.0 °F 100% 30.01 in 5.0 mi Calm Calm - N/A   Overcast
2:55 AM 69.8 °F - 69.8 °F 100% 30.00 in 4.0 mi Calm Calm - N/A   Overcast
3:15 AM 70.2 °F - 70.2 °F 100% 30.00 in 5.0 mi Calm Calm - N/A   Overcast
3:35 AM 69.6 °F - 69.4 °F 99% 30.00 in 3.0 mi Calm Calm - N/A Rain Light Rain
3:55 AM 70.2 °F - 70.2 °F 100% 30.00 in 2.5 mi Calm Calm - N/A Rain Light Rain
4:35 AM 69.8 °F - 69.8 °F 100% 30.00 in 2.5 mi Calm Calm - N/A   Scattered Clouds
4:55 AM 70.0 °F - 70.0 °F 100% 30.00 in 2.5 mi Calm Calm - N/A   Mostly Cloudy
5:15 AM 70.0 °F - 70.0 °F 100% 30.00 in 2.0 mi Calm Calm - N/A   Overcast
5:35 AM 69.1 °F - 69.1 °F 100% 29.99 in 1.2 mi Calm Calm - N/A   Overcast
6:15 AM 68.9 °F - 68.9 °F 100% 29.99 in 1.2 mi Calm Calm - N/A   Mist
6:35 AM 68.4 °F - 68.4 °F 100% 29.98 in 1.5 mi Calm Calm - N/A   Mist
6:55 AM 68.7 °F - 68.7 °F 100% 29.99 in 1.8 mi Calm Calm - N/A   Scattered Clouds
7:15 AM 69.3 °F - 69.3 °F 100% 30.00 in 1.8 mi Calm Calm - N/A   Mostly Cloudy
7:35 AM 69.1 °F - 69.1 °F 100% 30.00 in 1.0 mi Calm Calm - N/A Rain Light Rain
7:55 AM 69.3 °F - 69.3 °F 100% 29.99 in 1.5 mi Calm Calm - 0.02 in Rain Heavy Rain
8:15 AM 69.4 °F - 69.4 °F 100% 30.00 in 2.0 mi Calm Calm - N/A   Overcast
8:35 AM 69.8 °F - 69.8 °F 100% 30.00 in 2.5 mi Calm Calm - N/A   Mostly Cloudy
8:55 AM 69.8 °F - 69.8 °F 100% 29.99 in 4.0 mi Calm Calm - N/A Rain Light Rain
9:15 AM 70.3 °F - 70.3 °F 100% 29.99 in 4.0 mi Calm Calm - N/A   Scattered Clouds
9:34 AM 71.6 °F - 69.8 °F 94% 29.98 in 7.0 mi Calm Calm - N/A   Mostly Cloudy
9:40 AM 72.1 °F - 69.6 °F 92% 29.98 in 7.0 mi Calm Calm - N/A   Scattered Clouds
9:55 AM 72.5 °F - 69.8 °F 91% 29.97 in 7.0 mi NW 3.5 mph - N/A   Scattered Clouds
10:15 AM 73.4 °F - 69.8 °F 88% 29.97 in 10.0 mi Calm Calm - N/A   Scattered Clouds
10:35 AM 74.3 °F - 70.0 °F 86% 29.98 in 10.0 mi WNW 3.5 mph - N/A   Scattered Clouds
10:55 AM 75.6 °F - 70.3 °F 84% 29.97 in 10.0 mi Calm Calm - N/A   Scattered Clouds
11:15 AM 77.9 °F - 69.8 °F 76% 29.97 in 10.0 mi Calm Calm - N/A   Scattered Clouds
11:35 AM 77.9 °F - 70.5 °F 78% 29.97 in 10.0 mi WNW 3.5 mph - N/A   Scattered Clouds
11:55 AM 80.1 °F 83.4 °F 70.9 °F 73% 29.97 in 10.0 mi SSW 3.5 mph - N/A   Clear
12:15 PM 81.0 °F 84.4 °F 70.0 °F 69% 29.96 in 10.0 mi West 4.6 mph - N/A   Scattered Clouds
12:35 PM 81.0 °F 84.6 °F 70.3 °F 70% 29.96 in 10.0 mi SW 6.9 mph - N/A   Scattered Clouds
12:55 PM 82.0 °F 86.1 °F 70.3 °F 68% 29.95 in 10.0 mi SSW 3.5 mph - N/A   Scattered Clouds
1:15 PM 82.2 °F 86.4 °F 70.5 °F 68% 29.93 in 10.0 mi SSW 3.5 mph - N/A   Scattered Clouds
1:35 PM 84.0 °F 88.7 °F 70.9 °F 64% 29.93 in 10.0 mi SW 4.6 mph - N/A   Scattered Clouds
1:55 PM 83.5 °F 87.7 °F 70.2 °F 64% 29.92 in 10.0 mi Calm Calm - N/A   Clear
2:15 PM 84.6 °F 88.8 °F 70.0 °F 61% 29.91 in 10.0 mi Calm Calm - N/A   Scattered Clouds
2:35 PM 86.0 °F 91.8 °F 71.6 °F 62% 29.90 in 10.0 mi NNW 3.5 mph - N/A   Clear
2:55 PM 87.4 °F 90.8 °F 67.8 °F 52% 29.89 in 10.0 mi West 5.8 mph - N/A   Clear
3:15 PM 86.9 °F 90.6 °F 68.2 °F 54% 29.88 in 10.0 mi West 8.1 mph - N/A   Clear
3:55 PM 87.6 °F 89.7 °F 65.7 °F 48% 29.88 in 10.0 mi WNW 9.2 mph 16.1 mph N/A   Clear
4:15 PM 87.1 °F 89.5 °F 66.2 °F 50% 29.88 in 10.0 mi WNW 9.2 mph - N/A   Scattered Clouds
4:35 PM 85.6 °F 87.4 °F 65.3 °F 50% 29.88 in 10.0 mi West 10.4 mph 17.3 mph N/A   Scattered Clouds
4:55 PM 84.2 °F 86.1 °F 65.3 °F 53% 29.88 in 10.0 mi WSW 5.8 mph 18.4 mph N/A   Scattered Clouds
5:15 PM 84.2 °F 86.3 °F 65.8 °F 54% 29.88 in 10.0 mi West 5.8 mph - N/A   Clear
5:55 PM 86.0 °F 88.2 °F 65.8 °F 51% 29.88 in 10.0 mi West 4.6 mph - N/A   Mostly Cloudy
6:15 PM 84.2 °F 86.6 °F 66.6 °F 55% 29.88 in 10.0 mi Calm Calm - N/A   Mostly Cloudy
6:35 PM 83.1 °F 85.7 °F 66.7 °F 58% 29.89 in 10.0 mi Calm Calm - N/A   Mostly Cloudy
6:55 PM 82.8 °F 84.7 °F 65.8 °F 56% 29.89 in 10.0 mi Calm Calm - N/A   Mostly Cloudy
7:15 PM 82.6 °F 84.9 °F 66.6 °F 58% 29.90 in 10.0 mi Calm Calm - N/A   Overcast
7:35 PM 81.5 °F 83.9 °F 67.1 °F 61% 29.90 in 10.0 mi Calm Calm - N/A   Mostly Cloudy
7:55 PM 80.8 °F 82.8 °F 65.8 °F 60% 29.90 in 10.0 mi Calm Calm - N/A   Overcast
8:15 PM 79.9 °F - 65.7 °F 62% 29.90 in - SW 5.8 mph - N/A   Mostly Cloudy
8:35 PM 79.7 °F - 65.5 °F 62% 29.90 in - West 4.6 mph - N/A   Scattered Clouds
8:55 PM 78.3 °F - 66.4 °F 67% 29.90 in 10.0 mi Calm Calm - N/A   Scattered Clouds
9:15 PM 73.8 °F - 68.7 °F 84% 29.90 in 10.0 mi Calm Calm - N/A   Mostly Cloudy
9:35 PM 74.3 °F - 67.8 °F 80% 29.90 in 10.0 mi Calm Calm - N/A   Mostly Cloudy
9:55 PM 75.6 °F - 66.6 °F 74% 29.90 in 10.0 mi Calm Calm - N/A   Scattered Clouds
10:35 PM 72.1 °F - 67.3 °F 85% 29.91 in 10.0 mi Calm Calm - N/A   Scattered Clouds
10:55 PM 70.3 °F - 68.2 °F 93% 29.90 in - East 3.5 mph - N/A   Unknown
11:15 PM 69.8 °F - 67.3 °F 92% 29.91 in 10.0 mi Calm Calm - N/A   Clear
11:35 PM 69.3 °F - 68.2 °F 96% 29.91 in 10.0 mi Calm Calm - N/A   Clear
11:55 PM 68.2 °F - 67.6 °F 98% 29.92 in 10.0 mi Calm Calm - N/A   Clear